Location: Newport
(44.6370°N, 124.0520°W)
Time: 13:43:28
(UTC-08:00)

Tiangong 2 - Pass Details

Date: 09 October 2017
Orbit: 386 x 389 km, 42.8° (Epoch: 17 December)

Event Time Altitude Azimuth Distance (km) Brightness Sun altitude
Exits shadow 06:33:22 - 229° (SW) 1,511 3.6 -9.9°
Reaches altitude 10° 06:33:37 10° 227° (SW) 1,420 3.5 -9.8°
Maximum altitude 06:36:33 34° 161° (SSE) 673 2.5 -9.3°
Drops below altitude 10° 06:39:30 10° 95° (E) 1,427 5.6 -8.8°
Sets 06:41:41 0° 85° (E) 2,285 7.4 -8.4°
